| time (UTC) | temp F | wind direction | speed MPH | gust MPH | rain 1hr in | rain 24hr in | rain mn in | humidity % | barometer mb |
| 20260901075524 | 76 | 153 | 1.0 | 3.0 | 0.00 | 0.27 | 0.00 | 75 | 1012.6 |
| 20260901075025 | 76 | 153 | 0.0 | 4.0 | 0.00 | 0.27 | 0.00 | 75 | 1012.5 |
| 20260901074549 | 76 | 149 | 0.0 | 4.0 | 0.00 | 0.27 | 0.00 | 74 | 1012.6 |
| 20260901074023 | 77 | 163 | 1.0 | 5.0 | 0.00 | 0.27 | 0.00 | 74 | 1012.5 |
| 20260901073524 | 77 | 148 | 1.0 | 5.0 | 0.00 | 0.27 | 0.00 | 73 | 1012.5 |
| 20260901073046 | 77 | 0 | 1.0 | 5.0 | 0.00 | 0.27 | 0.00 | 73 | 1012.5 |
| 20260901072524 | 77 | 0 | 1.0 | 5.0 | 0.00 | 0.27 | 0.00 | 72 | 1012.5 |
| 20260901072027 | 77 | 161 | 2.0 | 6.0 | 0.00 | 0.27 | 0.00 | 72 | 1012.5 |
| 20260901071553 | 77 | 150 | 1.0 | 6.0 | 0.00 | 0.27 | 0.00 | 72 | 1012.4 |
| 20260901071027 | 77 | 142 | 2.0 | 6.0 | 0.00 | 0.27 | 0.00 | 71 | 1012.4 |
| 20260901070527 | 78 | 161 | 3.0 | 7.0 | 0.00 | 0.27 | 0.00 | 71 | 1012.3 |
| 20260901070051 | 78 | 142 | 3.0 | 7.0 | 0.00 | 0.27 | 0.00 | 71 | 1012.3 |
| 20260901065525 | 78 | 147 | 3.0 | 7.0 | 0.00 | 0.27 | 0.27 | 70 | 1012.3 |
| 20260901065026 | 78 | 193 | 2.0 | 5.0 | 0.00 | 0.27 | 0.27 | 70 | 1012.3 |
| 20260901064547 | 78 | 146 | 2.0 | 6.0 | 0.00 | 0.27 | 0.27 | 70 | 1012.2 |
| 20260901064028 | 78 | 142 | 2.0 | 6.0 | 0.00 | 0.27 | 0.27 | 70 | 1012.2 |
| 20260901063525 | 78 | 154 | 2.0 | 5.0 | 0.00 | 0.27 | 0.27 | 70 | 1012.2 |
| 20260901063104 | 78 | 154 | 1.0 | 3.0 | 0.00 | 0.27 | 0.27 | 70 | 1012.3 |
| 20260901062529 | 78 | 154 | 1.0 | 4.0 | 0.00 | 0.27 | 0.27 | 70 | 1012.2 |
| 20260901062027 | 78 | 154 | 1.0 | 8.0 | 0.00 | 0.27 | 0.27 | 71 | 1012.1 |
| 20260901061602 | 78 | 146 | 2.0 | 8.0 | 0.00 | 0.27 | 0.27 | 71 | 1012.0 |
| 20260901061025 | 78 | 138 | 2.0 | 7.0 | 0.00 | 0.27 | 0.27 | 72 | 1012.1 |
| 20260901060523 | 78 | 112 | 1.0 | 6.0 | 0.00 | 0.27 | 0.27 | 72 | 1012.0 |
| 20260901060056 | 78 | 149 | 2.0 | 5.0 | 0.00 | 0.27 | 0.27 | 71 | 1012.0 |
| 20260901055524 | 79 | 150 | 2.0 | 5.0 | 0.00 | 0.27 | 0.27 | 71 | 1012.0 |
| 20260901055028 | 79 | 76 | 1.0 | 7.0 | 0.00 | 0.27 | 0.27 | 70 | 1012.0 |
| 20260901054551 | 79 | 136 | 2.0 | 7.0 | 0.00 | 0.27 | 0.27 | 70 | 1011.9 |
| 20260901054025 | 79 | 155 | 2.0 | 6.0 | 0.00 | 0.27 | 0.27 | 69 | 1012.0 |
| 20260901053530 | 79 | 159 | 3.0 | 7.0 | 0.00 | 0.27 | 0.27 | 69 | 1012.0 |
| 20260901053105 | 79 | 132 | 2.0 | 7.0 | 0.00 | 0.27 | 0.27 | 69 | 1011.9 |
| 20260901052523 | 79 | 133 | 2.0 | 7.0 | 0.00 | 0.27 | 0.27 | 68 | 1012.0 |
| 20260901052024 | 80 | 138 | 2.0 | 7.0 | 0.00 | 0.27 | 0.27 | 68 | 1012.0 |
| 20260901051550 | 80 | 148 | 1.0 | 8.0 | 0.00 | 0.27 | 0.27 | 67 | 1012.0 |
| 20260901051024 | 80 | 148 | 2.0 | 9.0 | 0.00 | 0.27 | 0.27 | 66 | 1012.0 |
| 20260901050527 | 80 | 160 | 3.0 | 9.0 | 0.00 | 0.27 | 0.27 | 65 | 1012.0 |
| 20260901050052 | 80 | 159 | 2.0 | 6.0 | 0.00 | 0.27 | 0.27 | 64 | 1012.0 |
| 20260901045530 | 80 | 149 | 2.0 | 5.0 | 0.00 | 0.27 | 0.27 | 63 | 1012.1 |
| 20260901045028 | 81 | 147 | 1.0 | 4.0 | 0.00 | 0.27 | 0.27 | 63 | 1012.0 |
| 20260901044600 | 81 | 147 | 1.0 | 4.0 | 0.00 | 0.27 | 0.27 | 62 | 1012.0 |
| 20260901044027 | 81 | 0 | 1.0 | 4.0 | 0.00 | 0.27 | 0.27 | 62 | 1011.9 |
| 20260901043523 | 81 | 159 | 1.0 | 8.0 | 0.00 | 0.27 | 0.27 | 61 | 1011.9 |
| 20260901043052 | 81 | 142 | 2.0 | 9.0 | 0.00 | 0.27 | 0.27 | 60 | 1012.0 |
| 20260901042523 | 81 | 141 | 3.0 | 9.0 | 0.00 | 0.27 | 0.27 | 60 | 1011.9 |
| 20260901042024 | 81 | 149 | 4.0 | 9.0 | 0.00 | 0.27 | 0.27 | 60 | 1011.9 |
| 20260901041548 | 81 | 192 | 3.0 | 8.0 | 0.00 | 0.27 | 0.27 | 60 | 1011.8 |
| 20260901041027 | 82 | 156 | 2.0 | 8.0 | 0.00 | 0.27 | 0.27 | 59 | 1012.0 |
| 20260901040527 | 82 | 178 | 2.0 | 7.0 | 0.00 | 0.27 | 0.27 | 58 | 1012.0 |
| 20260901040055 | 82 | 147 | 1.0 | 6.0 | 0.00 | 0.27 | 0.27 | 58 | 1011.9 |
| 20260901035526 | 82 | 148 | 1.0 | 7.0 | 0.00 | 0.27 | 0.27 | 57 | 1011.9 |
| 20260901035026 | 82 | 141 | 3.0 | 7.0 | 0.00 | 0.27 | 0.27 | 57 | 1011.9 |
| 20260901034551 | 82 | 169 | 2.0 | 7.0 | 0.00 | 0.27 | 0.27 | 56 | 1011.8 |
| 20260901034028 | 82 | 155 | 2.0 | 7.0 | 0.00 | 0.27 | 0.27 | 56 | 1011.7 |
| 20260901033524 | 83 | 157 | 2.0 | 7.0 | 0.00 | 0.27 | 0.27 | 56 | 1011.6 |
| 20260901033048 | 83 | 170 | 3.0 | 7.0 | 0.00 | 0.27 | 0.27 | 55 | 1011.6 |
| 20260901032524 | 83 | 148 | 2.0 | 7.0 | 0.00 | 0.27 | 0.27 | 55 | 1011.6 |
| 20260901032024 | 83 | 145 | 2.0 | 7.0 | 0.00 | 0.27 | 0.27 | 55 | 1011.5 |
| 20260901031554 | 83 | 140 | 3.0 | 7.0 | 0.00 | 0.27 | 0.27 | 54 | 1011.4 |
| 20260901031027 | 83 | 174 | 2.0 | 7.0 | 0.00 | 0.27 | 0.27 | 54 | 1011.4 |
| 20260901030524 | 83 | 161 | 2.0 | 7.0 | 0.00 | 0.27 | 0.27 | 53 | 1011.3 |
| 20260901030055 | 83 | 173 | 3.0 | 8.0 | 0.00 | 0.27 | 0.27 | 52 | 1011.3 |
| 20260901025529 | 84 | 177 | 4.0 | 8.0 | 0.00 | 0.27 | 0.27 | 52 | 1011.2 |
| 20260901025025 | 84 | 161 | 2.0 | 7.0 | 0.00 | 0.27 | 0.27 | 51 | 1011.2 |
| 20260901024554 | 84 | 183 | 3.0 | 7.0 | 0.00 | 0.27 | 0.27 | 50 | 1011.1 |
| 20260901024029 | 84 | 155 | 1.0 | 5.0 | 0.00 | 0.27 | 0.27 | 50 | 1011.0 |
| 20260901023526 | 84 | 172 | 1.0 | 5.0 | 0.00 | 0.27 | 0.27 | 50 | 1011.1 |
| 20260901023049 | 84 | 161 | 1.0 | 6.0 | 0.00 | 0.27 | 0.27 | 49 | 1011.2 |
| 20260901022527 | 84 | 165 | 2.0 | 6.0 | 0.00 | 0.27 | 0.27 | 50 | 1011.1 |
| 20260901022031 | 84 | 152 | 1.0 | 6.0 | 0.00 | 0.27 | 0.27 | 50 | 1010.8 |
| 20260901021550 | 84 | 0 | 1.0 | 6.0 | 0.00 | 0.27 | 0.27 | 50 | 1010.6 |
| 20260901021028 | 84 | 155 | 2.0 | 7.0 | 0.00 | 0.27 | 0.27 | 50 | 1010.6 |
| 20260901020526 | 84 | 157 | 1.0 | 7.0 | 0.00 | 0.27 | 0.27 | 51 | 1010.6 |
| 20260901020105 | 85 | 144 | 2.0 | 7.0 | 0.00 | 0.27 | 0.27 | 51 | 1010.6 |
| 20260901015524 | 85 | 159 | 2.0 | 6.0 | 0.00 | 0.27 | 0.27 | 52 | 1010.4 |
| 20260901015027 | 85 | 159 | 1.0 | 8.0 | 0.00 | 0.27 | 0.27 | 52 | 1010.4 |
| 20260901014548 | 85 | 144 | 2.0 | 8.0 | 0.00 | 0.27 | 0.27 | 51 | 1010.5 |
| 20260901014024 | 86 | 184 | 2.0 | 8.0 | 0.00 | 0.27 | 0.27 | 51 | 1010.5 |
| 20260901013531 | 86 | 151 | 1.0 | 4.0 | 0.00 | 0.27 | 0.27 | 48 | 1010.3 |
| 20260901013050 | 86 | 107 | 1.0 | 7.0 | 0.00 | 0.27 | 0.27 | 47 | 1010.4 |
| 20260901012524 | 87 | 138 | 1.0 | 7.0 | 0.00 | 0.27 | 0.27 | 46 | 1010.4 |
| 20260901012025 | 87 | 97 | 1.0 | 6.0 | 0.00 | 0.27 | 0.27 | 46 | 1010.5 |
| 20260901011550 | 87 | 106 | 2.0 | 6.0 | 0.00 | 0.27 | 0.27 | 47 | 1010.5 |
| 20260901011024 | 87 | 86 | 2.0 | 7.0 | 0.00 | 0.27 | 0.27 | 47 | 1010.4 |
| 20260901010527 | 87 | 100 | 2.0 | 10.0 | 0.00 | 0.27 | 0.27 | 48 | 1010.5 |
| 20260901010049 | 87 | 65 | 2.0 | 10.0 | 0.00 | 0.27 | 0.27 | 48 | 1010.6 |
| 20260901005528 | 87 | 61 | 2.0 | 9.0 | 0.00 | 0.27 | 0.27 | 48 | 1010.6 |
| 20260901005026 | 87 | 57 | 2.0 | 7.0 | 0.00 | 0.27 | 0.27 | 48 | 1010.7 |
| 20260901004556 | 87 | 105 | 1.0 | 7.0 | 0.00 | 0.27 | 0.27 | 50 | 1010.7 |
| 20260901004024 | 87 | 119 | 2.0 | 6.0 | 0.00 | 0.27 | 0.27 | 50 | 1010.9 |
| 20260901003525 | 87 | 79 | 2.0 | 7.0 | 0.00 | 0.27 | 0.27 | 51 | 1010.9 |
| 20260901003053 | 87 | 72 | 2.0 | 8.0 | 0.00 | 0.27 | 0.27 | 51 | 1010.9 |
| 20260901002525 | 87 | 88 | 2.0 | 8.0 | 0.00 | 0.27 | 0.27 | 51 | 1010.8 |
| 20260901002029 | 87 | 111 | 2.0 | 8.0 | 0.00 | 0.27 | 0.27 | 50 | 1011.0 |
| 20260901001549 | 87 | 66 | 2.0 | 7.0 | 0.00 | 0.27 | 0.27 | 50 | 1010.9 |
| 20260901001026 | 87 | 92 | 2.0 | 6.0 | 0.00 | 0.27 | 0.27 | 51 | 1010.8 |
| 20260901000524 | 87 | 342 | 1.0 | 6.0 | 0.00 | 0.27 | 0.27 | 51 | 1011.1 |
| 20260901000105 | 87 | 89 | 2.0 | 6.0 | 0.00 | 0.27 | 0.27 | 51 | 1011.0 |
| 20260831235525 | 87 | 165 | 2.0 | 6.0 | 0.00 | 0.27 | 0.27 | 51 | 1011.1 |
| 20260831235027 | 87 | 82 | 1.0 | 8.0 | 0.00 | 0.27 | 0.27 | 51 | 1011.2 |
| 20260831234550 | 87 | 0 | 2.0 | 9.0 | 0.00 | 0.27 | 0.27 | 51 | 1011.1 |
| 20260831234026 | 87 | 141 | 2.0 | 9.0 | 0.00 | 0.27 | 0.27 | 50 | 1011.1 |
| 20260831233527 | 87 | 142 | 2.0 | 10.0 | 0.00 | 0.27 | 0.27 | 50 | 1011.0 |
| 20260831233054 | 87 | 68 | 3.0 | 10.0 | 0.00 | 0.27 | 0.27 | 49 | 1011.1 |
| 20260831232524 | 87 | 55 | 2.0 | 10.0 | 0.00 | 0.27 | 0.27 | 49 | 1011.0 |
| 20260831232024 | 87 | 103 | 2.0 | 10.0 | 0.00 | 0.27 | 0.27 | 49 | 1011.1 |
| 20260831231555 | 87 | 190 | 3.0 | 11.0 | 0.00 | 0.27 | 0.27 | 50 | 1011.1 |
| 20260831231024 | 87 | 0 | 4.0 | 11.0 | 0.00 | 0.27 | 0.27 | 51 | 1011.1 |
| 20260831230529 | 87 | 162 | 2.0 | 11.0 | 0.00 | 0.27 | 0.27 | 51 | 1011.1 |
| 20260831230055 | 86 | 122 | 2.0 | 12.0 | 0.00 | 0.27 | 0.27 | 50 | 1011.4 |
| 20260831225526 | 86 | 176 | 4.0 | 12.0 | 0.00 | 0.27 | 0.27 | 50 | 1011.5 |
| 20260831225027 | 86 | 140 | 3.0 | 10.0 | 0.00 | 0.27 | 0.27 | 51 | 1011.6 |
| 20260831224552 | 86 | 194 | 4.0 | 12.0 | 0.00 | 0.27 | 0.27 | 52 | 1011.7 |
| 20260831224024 | 86 | 129 | 4.0 | 14.0 | 0.00 | 0.27 | 0.27 | 51 | 1011.8 |
| 20260831223529 | 86 | 181 | 5.0 | 14.0 | 0.00 | 0.27 | 0.27 | 50 | 1011.8 |
| 20260831223055 | 86 | 127 | 3.0 | 13.0 | 0.00 | 0.27 | 0.27 | 51 | 1011.9 |
| 20260831222530 | 86 | 153 | 6.0 | 13.0 | 0.00 | 0.27 | 0.27 | 50 | 1012.1 |
| 20260831222029 | 86 | 101 | 4.0 | 11.0 | 0.00 | 0.27 | 0.27 | 51 | 1012.2 |
| 20260831221552 | 86 | 187 | 3.0 | 12.0 | 0.00 | 0.27 | 0.27 | 51 | 1012.2 |
| 20260831221028 | 86 | 159 | 4.0 | 12.0 | 0.00 | 0.27 | 0.27 | 51 | 1012.5 |
| 20260831220527 | 86 | 173 | 4.0 | 16.0 | 0.00 | 0.27 | 0.27 | 53 | 1012.8 |
| 20260831220052 | 86 | 196 | 4.0 | 16.0 | 0.00 | 0.27 | 0.27 | 53 | 1012.8 |
| 20260831215526 | 86 | 145 | 2.0 | 16.0 | 0.00 | 0.27 | 0.27 | 54 | 1012.9 |
| 20260831215025 | 86 | 145 | 5.0 | 16.0 | 0.00 | 0.27 | 0.27 | 52 | 1013.1 |
| 20260831214553 | 86 | 153 | 2.0 | 12.0 | 0.00 | 0.27 | 0.27 | 53 | 1013.2 |
| 20260831214023 | 86 | 161 | 3.0 | 12.0 | 0.00 | 0.27 | 0.27 | 53 | 1013.3 |
| 20260831213531 | 85 | 127 | 4.0 | 12.0 | 0.00 | 0.27 | 0.27 | 51 | 1013.5 |
| 20260831213056 | 85 | 183 | 4.0 | 11.0 | 0.00 | 0.27 | 0.27 | 52 | 1013.6 |
| 20260831212522 | 85 | 118 | 3.0 | 12.0 | 0.00 | 0.27 | 0.27 | 53 | 1013.7 |
| 20260831212025 | 85 | 163 | 5.0 | 12.0 | 0.00 | 0.27 | 0.27 | 54 | 1013.7 |
| 20260831211553 | 85 | 85 | 4.0 | 12.0 | 0.00 | 0.27 | 0.27 | 56 | 1013.8 |
| 20260831211025 | 85 | 167 | 5.0 | 15.0 | 0.00 | 0.27 | 0.27 | 55 | 1013.9 |
| 20260831210529 | 84 | 165 | 4.0 | 15.0 | 0.00 | 0.27 | 0.27 | 56 | 1013.9 |
| 20260831210050 | 84 | 121 | 6.0 | 14.0 | 0.00 | 0.27 | 0.27 | 57 | 1014.0 |
| 20260831205526 | 84 | 137 | 5.0 | 12.0 | 0.00 | 0.27 | 0.27 | 58 | 1014.0 |
| 20260831205025 | 83 | 99 | 3.0 | 12.0 | 0.00 | 0.27 | 0.27 | 62 | 1014.1 |
| 20260831204548 | 83 | 126 | 6.0 | 11.0 | 0.00 | 0.27 | 0.27 | 63 | 1014.1 |
| 20260831204027 | 83 | 103 | 4.0 | 12.0 | 0.00 | 0.27 | 0.27 | 64 | 1014.2 |
| 20260831203528 | 82 | 121 | 4.0 | 12.0 | 0.00 | 0.27 | 0.27 | 66 | 1014.3 |
| 20260831203046 | 81 | 65 | 3.0 | 14.0 | 0.00 | 0.27 | 0.27 | 68 | 1014.4 |
| 20260831202524 | 80 | 146 | 4.0 | 15.0 | 0.00 | 0.27 | 0.27 | 70 | 1014.3 |
| 20260831202026 | 79 | 145 | 6.0 | 15.0 | 0.00 | 0.27 | 0.27 | 71 | 1014.5 |
| 20260831201551 | 78 | 170 | 6.0 | 13.0 | 0.00 | 0.27 | 0.27 | 72 | 1014.5 |
| 20260831201025 | 78 | 151 | 6.0 | 14.0 | 0.00 | 0.27 | 0.27 | 73 | 1014.4 |
| 20260831200527 | 78 | 187 | 5.0 | 14.0 | 0.00 | 0.27 | 0.27 | 74 | 1014.6 |
| 20260831200052 | 77 | 133 | 5.0 | 12.0 | 0.00 | 0.27 | 0.27 | 74 | 1014.6 |
| 20260831195523 | 77 | 156 | 3.0 | 14.0 | 0.00 | 0.27 | 0.27 | 76 | 1014.7 |
| 20260831195023 | 76 | 117 | 4.0 | 14.0 | 0.00 | 0.27 | 0.27 | 76 | 1014.7 |
| 20260831194618 | 76 | 160 | 5.0 | 10.0 | 0.00 | 0.27 | 0.27 | 77 | 1014.9 |
| 20260831194024 | 76 | 158 | 5.0 | 12.0 | 0.00 | 0.27 | 0.27 | 76 | 1014.9 |
| 20260831193527 | 75 | 145 | 4.0 | 12.0 | 0.00 | 0.27 | 0.27 | 77 | 1014.8 |
| 20260831193051 | 75 | 157 | 5.0 | 12.0 | 0.00 | 0.27 | 0.27 | 77 | 1014.7 |
| 20260831192525 | 75 | 219 | 4.0 | 12.0 | 0.00 | 0.27 | 0.27 | 77 | 1014.7 |
| 20260831192024 | 75 | 133 | 5.0 | 16.0 | 0.00 | 0.27 | 0.27 | 77 | 1014.8 |
| 20260831191552 | 75 | 171 | 6.0 | 16.0 | 0.00 | 0.27 | 0.27 | 77 | 1014.9 |
| 20260831191023 | 75 | 174 | 5.0 | 14.0 | 0.00 | 0.27 | 0.27 | 78 | 1014.7 |
| 20260831190524 | 75 | 137 | 6.0 | 14.0 | 0.00 | 0.27 | 0.27 | 78 | 1014.7 |
| 20260831190105 | 75 | 184 | 6.0 | 16.0 | 0.00 | 0.27 | 0.27 | 78 | 1014.7 |
| 20260831185524 | 75 | 171 | 6.0 | 16.0 | 0.00 | 0.27 | 0.27 | 79 | 1015.0 |
| 20260831185026 | 75 | 144 | 8.0 | 16.0 | 0.00 | 0.27 | 0.27 | 81 | 1015.0 |
| 20260831184604 | 75 | 147 | 5.0 | 13.0 | 0.00 | 0.27 | 0.27 | 83 | 1015.0 |
| 20260831184025 | 75 | 150 | 5.0 | 13.0 | 0.00 | 0.27 | 0.27 | 84 | 1014.9 |
| 20260831183525 | 75 | 178 | 6.0 | 16.0 | 0.00 | 0.27 | 0.27 | 85 | 1015.0 |
| 20260831183048 | 75 | 186 | 7.0 | 16.0 | 0.00 | 0.27 | 0.27 | 85 | 1015.0 |
| 20260831182525 | 75 | 153 | 7.0 | 18.0 | 0.00 | 0.27 | 0.27 | 85 | 1015.0 |
| 20260831182030 | 75 | 139 | 7.0 | 18.0 | 0.00 | 0.27 | 0.27 | 83 | 1015.0 |
| 20260831181554 | 75 | 185 | 8.0 | 16.0 | 0.00 | 0.27 | 0.27 | 81 | 1015.1 |
| 20260831181028 | 76 | 137 | 8.0 | 16.0 | 0.00 | 0.27 | 0.27 | 81 | 1015.3 |
| 20260831180528 | 76 | 189 | 7.0 | 13.0 | 0.00 | 0.27 | 0.27 | 82 | 1015.3 |
| 20260831180050 | 76 | 210 | 5.0 | 11.0 | 0.00 | 0.27 | 0.27 | 83 | 1015.4 |
| 20260831175525 | 75 | 143 | 4.0 | 11.0 | 0.00 | 0.27 | 0.27 | 84 | 1015.6 |
| 20260831175024 | 75 | 137 | 3.0 | 8.0 | 0.00 | 0.27 | 0.27 | 85 | 1015.6 |
| 20260831174549 | 75 | 157 | 3.0 | 8.0 | 0.00 | 0.27 | 0.27 | 86 | 1015.8 |
| 20260831174027 | 75 | 138 | 3.0 | 7.0 | 0.00 | 0.27 | 0.27 | 87 | 1015.8 |
| 20260831173524 | 75 | 140 | 1.0 | 4.0 | 0.01 | 0.27 | 0.27 | 88 | 1015.7 |
| 20260831173049 | 75 | 126 | 1.0 | 6.0 | 0.01 | 0.27 | 0.27 | 88 | 1015.6 |
| 20260831172524 | 75 | 126 | 2.0 | 7.0 | 0.02 | 0.27 | 0.27 | 87 | 1015.6 |
| 20260831172026 | 75 | 0 | 1.0 | 7.0 | 0.02 | 0.27 | 0.27 | 87 | 1015.6 |
| 20260831171548 | 75 | 92 | 1.0 | 9.0 | 0.02 | 0.27 | 0.27 | 87 | 1015.6 |
| 20260831171028 | 74 | 88 | 3.0 | 10.0 | 0.03 | 0.27 | 0.27 | 87 | 1015.3 |
| 20260831170534 | 74 | 120 | 4.0 | 10.0 | 0.03 | 0.27 | 0.27 | 87 | 1015.3 |
| 20260831170051 | 74 | 38 | 1.0 | 7.0 | 0.03 | 0.27 | 0.27 | 87 | 1015.4 |
| 20260831165527 | 74 | 80 | 2.0 | 7.0 | 0.04 | 0.27 | 0.27 | 87 | 1015.3 |
| 20260831165025 | 74 | 67 | 2.0 | 9.0 | 0.06 | 0.27 | 0.27 | 87 | 1015.5 |
| 20260831164555 | 74 | 84 | 2.0 | 11.0 | 0.07 | 0.27 | 0.27 | 87 | 1015.2 |
| 20260831164023 | 74 | 69 | 4.0 | 11.0 | 0.08 | 0.27 | 0.27 | 87 | 1015.1 |
| 20260831163524 | 74 | 72 | 5.0 | 11.0 | 0.08 | 0.26 | 0.26 | 87 | 1015.2 |
| 20260831163050 | 74 | 43 | 4.0 | 12.0 | 0.09 | 0.26 | 0.26 | 87 | 1015.2 |
| 20260831162529 | 74 | 72 | 5.0 | 12.0 | 0.08 | 0.25 | 0.25 | 87 | 1015.0 |
| 20260831162028 | 74 | 54 | 6.0 | 12.0 | 0.09 | 0.25 | 0.25 | 87 | 1014.7 |
| 20260831161555 | 74 | 23 | 5.0 | 13.0 | 0.09 | 0.24 | 0.24 | 86 | 1014.7 |
| 20260831161030 | 73 | 35 | 6.0 | 13.0 | 0.09 | 0.24 | 0.24 | 87 | 1014.8 |
| 20260831160524 | 73 | 52 | 5.0 | 11.0 | 0.10 | 0.24 | 0.24 | 89 | 1015.0 |
| 20260831160050 | 73 | 59 | 6.0 | 11.0 | 0.09 | 0.23 | 0.23 | 90 | 1014.8 |
| 20260831155527 | 73 | 49 | 4.0 | 9.0 | 0.10 | 0.23 | 0.23 | 90 | 1014.8 |
| 20260831155028 | 73 | 47 | 4.0 | 9.0 | 0.09 | 0.21 | 0.21 | 90 | 1014.9 |
| 20260831154659 | 73 | 36 | 2.0 | 5.0 | 0.09 | 0.20 | 0.20 | 90 | 1014.9 |
| 20260831154028 | 73 | 25 | 2.0 | 4.0 | 0.08 | 0.19 | 0.19 | 89 | 1015.0 |
| 20260831153528 | 73 | 5 | 0.0 | 4.0 | 0.07 | 0.18 | 0.18 | 89 | 1014.9 |
| 20260831153055 | 73 | 25 | 1.0 | 6.0 | 0.06 | 0.17 | 0.17 | 89 | 1014.8 |
| 20260831152525 | 73 | 35 | 2.0 | 6.0 | 0.06 | 0.17 | 0.17 | 89 | 1014.7 |
| 20260831152034 | 73 | 105 | 3.0 | 6.0 | 0.05 | 0.16 | 0.16 | 89 | 1014.5 |
| 20260831151550 | 73 | 108 | 1.0 | 9.0 | 0.04 | 0.15 | 0.15 | 88 | 1014.5 |
| 20260831151026 | 73 | 123 | 2.0 | 10.0 | 0.04 | 0.15 | 0.15 | 88 | 1014.4 |
| 20260831150530 | 73 | 135 | 3.0 | 12.0 | 0.03 | 0.14 | 0.14 | 88 | 1014.4 |
| 20260831150052 | 73 | 97 | 6.0 | 15.0 | 0.02 | 0.13 | 0.13 | 87 | 1014.3 |
| 20260831145528 | 73 | 107 | 7.0 | 15.0 | 0.02 | 0.13 | 0.13 | 86 | 1014.5 |
| 20260831145029 | 74 | 175 | 7.0 | 14.0 | 0.01 | 0.12 | 0.12 | 85 | 1014.5 |
| 20260831144547 | 74 | 158 | 5.0 | 10.0 | 0.00 | 0.11 | 0.11 | 84 | 1014.8 |
| 20260831144028 | 75 | 238 | 4.0 | 10.0 | 0.00 | 0.11 | 0.11 | 83 | 1014.8 |
| 20260831143526 | 75 | 211 | 4.0 | 10.0 | 0.00 | 0.11 | 0.11 | 82 | 1014.8 |
| 20260831143112 | 75 | 232 | 3.0 | 12.0 | 0.00 | 0.11 | 0.11 | 80 | 1014.6 |
| 20260831142529 | 75 | 163 | 4.0 | 14.0 | 0.00 | 0.11 | 0.11 | 79 | 1014.4 |
| 20260831142023 | 75 | 163 | 4.0 | 14.0 | 0.00 | 0.11 | 0.11 | 79 | 1014.1 |
| 20260831141610 | 75 | 142 | 6.0 | 12.0 | 0.00 | 0.11 | 0.11 | 79 | 1013.9 |
| 20260831141026 | 75 | 182 | 5.0 | 14.0 | 0.00 | 0.11 | 0.11 | 79 | 1013.6 |
| 20260831140527 | 75 | 157 | 7.0 | 17.0 | 0.00 | 0.11 | 0.11 | 79 | 1013.5 |
| 20260831140054 | 75 | 166 | 6.0 | 17.0 | 0.00 | 0.11 | 0.11 | 79 | 1013.4 |
| 20260831135527 | 75 | 120 | 6.0 | 13.0 | 0.00 | 0.11 | 0.11 | 80 | 1013.2 |
| 20260831135028 | 75 | 111 | 5.0 | 13.0 | 0.00 | 0.11 | 0.11 | 80 | 1013.0 |
| 20260831134554 | 75 | 207 | 5.0 | 15.0 | 0.00 | 0.11 | 0.11 | 80 | 1013.0 |
| 20260831134026 | 75 | 146 | 6.0 | 16.0 | 0.00 | 0.11 | 0.11 | 80 | 1012.9 |
| 20260831133526 | 76 | 141 | 4.0 | 16.0 | 0.00 | 0.11 | 0.11 | 80 | 1012.7 |
| 20260831133047 | 76 | 107 | 5.0 | 17.0 | 0.00 | 0.11 | 0.11 | 79 | 1012.6 |
| 20260831132525 | 76 | 67 | 4.0 | 19.0 | 0.00 | 0.11 | 0.11 | 78 | 1012.5 |
| 20260831132034 | 76 | 138 | 6.0 | 19.0 | 0.00 | 0.11 | 0.11 | 77 | 1012.4 |
| 20260831131552 | 76 | 102 | 8.0 | 17.0 | 0.00 | 0.11 | 0.11 | 76 | 1012.3 |
| 20260831131025 | 77 | 54 | 5.0 | 17.0 | 0.00 | 0.11 | 0.11 | 76 | 1012.2 |
| 20260831130528 | 77 | 74 | 6.0 | 16.0 | 0.00 | 0.11 | 0.11 | 75 | 1012.1 |
| 20260831130056 | 77 | 100 | 4.0 | 11.0 | 0.00 | 0.11 | 0.11 | 75 | 1012.1 |
| 20260831125528 | 78 | 81 | 3.0 | 8.0 | 0.00 | 0.11 | 0.11 | 74 | 1012.1 |
| 20260831125028 | 78 | 188 | 3.0 | 8.0 | 0.00 | 0.11 | 0.11 | 72 | 1012.1 |
| 20260831124551 | 79 | 136 | 3.0 | 7.0 | 0.00 | 0.11 | 0.11 | 71 | 1012.1 |
| 20260831124026 | 79 | 94 | 1.0 | 4.0 | 0.00 | 0.11 | 0.11 | 69 | 1012.0 |
| 20260831123526 | 79 | 104 | 1.0 | 4.0 | 0.00 | 0.11 | 0.11 | 69 | 1011.9 |
| 20260831123052 | 79 | 104 | 0.0 | 5.0 | 0.00 | 0.11 | 0.11 | 70 | 1011.7 |
| 20260831122527 | 79 | 0 | 0.0 | 5.0 | 0.00 | 0.11 | 0.11 | 69 | 1011.7 |
| 20260831122027 | 79 | 220 | 2.0 | 5.0 | 0.00 | 0.11 | 0.11 | 69 | 1011.4 |
| 20260831121548 | 79 | 247 | 1.0 | 4.0 | 0.00 | 0.11 | 0.11 | 68 | 1011.3 |
| 20260831121026 | 79 | 266 | 1.0 | 6.0 | 0.00 | 0.11 | 0.11 | 68 | 1011.2 |
| 20260831120527 | 79 | 297 | 1.0 | 6.0 | 0.00 | 0.11 | 0.11 | 67 | 1011.1 |
| 20260831120059 | 79 | 290 | 2.0 | 6.0 | 0.00 | 0.11 | 0.11 | 67 | 1011.1 |
| 20260831115528 | 79 | 278 | 1.0 | 4.0 | 0.00 | 0.11 | 0.11 | 67 | 1010.9 |
| 20260831115028 | 79 | 295 | 1.0 | 4.0 | 0.00 | 0.11 | 0.11 | 67 | 1010.8 |
| 20260831114549 | 79 | 277 | 2.0 | 5.0 | 0.00 | 0.11 | 0.11 | 68 | 1010.7 |
| 20260831114026 | 79 | 247 | 1.0 | 6.0 | 0.00 | 0.11 | 0.11 | 68 | 1010.7 |
| 20260831113525 | 79 | 231 | 2.0 | 6.0 | 0.00 | 0.11 | 0.11 | 69 | 1010.7 |
| 20260831113054 | 78 | 241 | 2.0 | 5.0 | 0.00 | 0.11 | 0.11 | 69 | 1010.5 |
| 20260831112526 | 78 | 334 | 1.0 | 6.0 | 0.00 | 0.11 | 0.11 | 69 | 1010.5 |
| 20260831112025 | 78 | 0 | 3.0 | 9.0 | 0.00 | 0.11 | 0.11 | 69 | 1010.5 |
| 20260831111549 | 78 | 163 | 2.0 | 9.0 | 0.00 | 0.11 | 0.11 | 70 | 1010.3 |
| 20260831111024 | 78 | 168 | 4.0 | 9.0 | 0.00 | 0.11 | 0.11 | 71 | 1010.2 |
| 20260831110527 | 78 | 189 | 4.0 | 9.0 | 0.00 | 0.11 | 0.11 | 73 | 1010.1 |
| 20260831110048 | 77 | 148 | 3.0 | 9.0 | 0.00 | 0.11 | 0.11 | 74 | 1010.2 |
| 20260831105524 | 77 | 178 | 4.0 | 9.0 | 0.00 | 0.11 | 0.11 | 75 | 1010.3 |
| 20260831105024 | 77 | 200 | 4.0 | 8.0 | 0.00 | 0.11 | 0.11 | 75 | 1010.3 |
| 20260831104544 | 77 | 142 | 3.0 | 8.0 | 0.00 | 0.11 | 0.11 | 76 | 1010.0 |
| 20260831104025 | 77 | 157 | 2.0 | 9.0 | 0.00 | 0.11 | 0.11 | 76 | 1009.9 |
| 20260831103525 | 77 | 159 | 4.0 | 9.0 | 0.00 | 0.11 | 0.11 | 75 | 1009.9 |
| 20260831103055 | 78 | 188 | 3.0 | 9.0 | 0.00 | 0.11 | 0.11 | 73 | 1009.9 |
| 20260831102524 | 78 | 150 | 2.0 | 6.0 | 0.00 | 0.11 | 0.11 | 72 | 1009.7 |
| 20260831102031 | 78 | 112 | 2.0 | 7.0 | 0.00 | 0.11 | 0.11 | 70 | 1009.6 |
| 20260831101612 | 78 | 102 | 2.0 | 9.0 | 0.00 | 0.11 | 0.11 | 69 | 1009.4 |
| 20260831101024 | 78 | 78 | 3.0 | 9.0 | 0.00 | 0.11 | 0.11 | 69 | 1009.3 |
| 20260831100524 | 78 | 65 | 3.0 | 6.0 | 0.00 | 0.11 | 0.11 | 70 | 1009.3 |
| 20260831100057 | 78 | 22 | 2.0 | 5.0 | 0.00 | 0.11 | 0.11 | 71 | 1009.4 |
| 20260831095527 | 78 | 58 | 1.0 | 6.0 | 0.00 | 0.11 | 0.11 | 71 | 1009.6 |
| 20260831095028 | 78 | 22 | 2.0 | 7.0 | 0.00 | 0.11 | 0.11 | 73 | 1009.6 |
| 20260831094544 | 77 | 37 | 2.0 | 8.0 | 0.00 | 0.11 | 0.11 | 74 | 1009.6 |
| 20260831094023 | 77 | 67 | 3.0 | 8.0 | 0.00 | 0.11 | 0.11 | 76 | 1009.7 |
| 20260831093525 | 78 | 108 | 3.0 | 8.0 | 0.00 | 0.11 | 0.11 | 76 | 1009.9 |
| 20260831093057 | 78 | 148 | 2.0 | 8.0 | 0.00 | 0.11 | 0.11 | 75 | 1010.0 |
| 20260831092525 | 78 | 115 | 3.0 | 8.0 | 0.00 | 0.11 | 0.11 | 74 | 1010.3 |
| 20260831092024 | 79 | 150 | 3.0 | 7.0 | 0.00 | 0.11 | 0.11 | 73 | 1010.1 |
| 20260831091549 | 79 | 98 | 2.0 | 6.0 | 0.00 | 0.11 | 0.11 | 71 | 1009.9 |
| 20260831091029 | 79 | 83 | 1.0 | 5.0 | 0.00 | 0.11 | 0.11 | 71 | 1009.8 |
| 20260831090527 | 79 | 69 | 2.0 | 7.0 | 0.00 | 0.11 | 0.11 | 71 | 1010.0 |
| 20260831090105 | 79 | 61 | 2.0 | 10.0 | 0.00 | 0.11 | 0.11 | 72 | 1010.0 |
| 20260831085525 | 78 | 13 | 3.0 | 10.0 | 0.00 | 0.11 | 0.11 | 73 | 1010.1 |
| 20260831085030 | 77 | 61 | 3.0 | 8.0 | 0.00 | 0.11 | 0.11 | 75 | 1010.4 |
| 20260831084549 | 77 | 87 | 0.0 | 5.0 | 0.01 | 0.11 | 0.11 | 78 | 1010.5 |
| 20260831084024 | 77 | 74 | 2.0 | 7.0 | 0.10 | 0.11 | 0.11 | 78 | 1010.6 |
| 20260831083527 | 77 | 0 | 0.0 | 7.0 | 0.11 | 0.11 | 0.11 | 79 | 1010.6 |
| 20260831083048 | 77 | 100 | 2.0 | 6.0 | 0.11 | 0.11 | 0.11 | 78 | 1010.8 |
| 20260831082526 | 77 | 115 | 2.0 | 6.0 | 0.11 | 0.11 | 0.11 | 77 | 1011.0 |
| 20260831082026 | 77 | 96 | 1.0 | 9.0 | 0.11 | 0.11 | 0.11 | 76 | 1011.2 |
| 20260831081551 | 77 | 84 | 3.0 | 10.0 | 0.11 | 0.11 | 0.11 | 76 | 1011.1 |
| 20260831081025 | 77 | 77 | 5.0 | 10.0 | 0.11 | 0.11 | 0.11 | 77 | 1010.9 |
| 20260831080525 | 77 | 31 | 3.0 | 13.0 | 0.11 | 0.11 | 0.11 | 78 | 1010.6 |
| 20260831080051 | 76 | 42 | 6.0 | 13.0 | 0.11 | 0.11 | 0.11 | 79 | 1010.3 |